| time (UTC) | temp F | wind direction | speed MPH | gust MPH | rain 1hr in | rain 24hr in | rain mn in | humidity % | barometer mb |
| 20260505101109 | 44 | 0 | 3.0 | 5.0 | 0.00 | 0.35 | 0.00 | 85 | 1011.9 |
| 20260505100055 | 44 | 0 | 5.0 | 8.0 | 0.00 | 0.35 | 0.00 | 84 | 1011.9 |
| 20260505095028 | 44 | 0 | 5.0 | 9.0 | 0.00 | 0.35 | 0.00 | 84 | 1011.9 |
| 20260505094009 | 44 | 0 | 6.0 | 11.0 | 0.00 | 0.35 | 0.00 | 85 | 1012.0 |
| 20260505092959 | 44 | 0 | 7.0 | 12.0 | 0.00 | 0.35 | 0.00 | 84 | 1011.9 |
| 20260505091946 | 44 | 0 | 4.0 | 9.0 | 0.00 | 0.35 | 0.00 | 84 | 1012.0 |
| 20260505090918 | 44 | 0 | 6.0 | 12.0 | 0.00 | 0.35 | 0.00 | 85 | 1012.1 |
| 20260505084836 | 44 | 0 | 5.0 | 10.0 | 0.00 | 0.35 | 0.00 | 84 | 1012.0 |
| 20260505083820 | 44 | 0 | 6.0 | 10.0 | 0.00 | 0.35 | 0.00 | 85 | 1012.1 |
| 20260505082756 | 44 | 0 | 3.0 | 6.0 | 0.00 | 0.35 | 0.00 | 86 | 1012.4 |
| 20260505081739 | 43 | 0 | 4.0 | 9.0 | 0.00 | 0.35 | 0.00 | 85 | 1012.4 |
| 20260505075659 | 43 | 0 | 5.0 | 10.0 | 0.00 | 0.35 | 0.00 | 84 | 1012.6 |
| 20260505074639 | 43 | 0 | 7.0 | 13.0 | 0.00 | 0.35 | 0.00 | 85 | 1012.7 |
| 20260505073616 | 43 | 0 | 3.0 | 8.0 | 0.00 | 0.35 | 0.00 | 88 | 1012.7 |
| 20260505072556 | 43 | 0 | 2.0 | 5.0 | 0.00 | 0.35 | 0.00 | 86 | 1013.0 |
| 20260505071539 | 44 | 314 | 1.0 | 4.0 | 0.00 | 0.35 | 0.00 | 85 | 1012.8 |
| 20260505070518 | 44 | 319 | 2.0 | 4.0 | 0.00 | 0.35 | 0.00 | 84 | 1012.5 |
| 20260505064446 | 44 | 0 | 10.0 | 16.0 | 0.00 | 0.35 | 0.35 | 82 | 1012.4 |
| 20260505062411 | 44 | 0 | 7.0 | 14.0 | 0.00 | 0.35 | 0.35 | 81 | 1011.3 |
| 20260505061351 | 45 | 0 | 7.0 | 16.0 | 0.00 | 0.35 | 0.35 | 81 | 1011.4 |
| 20260505060330 | 45 | 288 | 8.0 | 15.0 | 0.00 | 0.35 | 0.35 | 82 | 1011.4 |
| 20260505055316 | 44 | 0 | 9.0 | 16.0 | 0.00 | 0.35 | 0.35 | 83 | 1011.4 |
| 20260505054249 | 44 | 0 | 10.0 | 17.0 | 0.00 | 0.35 | 0.35 | 83 | 1011.6 |
| 20260505053229 | 44 | 0 | 11.0 | 17.0 | 0.01 | 0.35 | 0.35 | 83 | 1011.9 |
| 20260505052209 | 44 | 0 | 11.0 | 21.0 | 0.01 | 0.35 | 0.35 | 83 | 1011.9 |
| 20260505051149 | 44 | 0 | 14.0 | 25.0 | 0.01 | 0.35 | 0.35 | 83 | 1012.3 |
| 20260505050132 | 44 | 0 | 15.0 | 23.0 | 0.01 | 0.35 | 0.35 | 83 | 1012.4 |
| 20260505040955 | 44 | 0 | 11.0 | 17.0 | 0.04 | 0.34 | 0.34 | 86 | 1011.7 |
| 20260505035935 | 44 | 0 | 10.0 | 18.0 | 0.04 | 0.33 | 0.33 | 85 | 1011.9 |
| 20260505034916 | 43 | 0 | 15.0 | 23.0 | 0.03 | 0.32 | 0.32 | 84 | 1012.3 |
| 20260505033855 | 43 | 0 | 16.0 | 23.0 | 0.03 | 0.32 | 0.32 | 84 | 1012.0 |
| 20260505032838 | 43 | 0 | 13.0 | 24.0 | 0.03 | 0.32 | 0.32 | 84 | 1011.8 |
| 20260505031816 | 43 | 0 | 17.0 | 25.0 | 0.02 | 0.31 | 0.31 | 84 | 1011.7 |
| 20260505025734 | 44 | 0 | 15.0 | 22.0 | 0.01 | 0.29 | 0.29 | 83 | 1011.9 |
| 20260505023657 | 44 | 0 | 15.0 | 25.0 | 0.04 | 0.29 | 0.29 | 82 | 1012.0 |
| 20260505021619 | 44 | 0 | 14.0 | 25.0 | 0.14 | 0.29 | 0.29 | 87 | 1011.4 |
| 20260505020557 | 44 | 0 | 17.0 | 27.0 | 0.15 | 0.29 | 0.29 | 85 | 1011.4 |
| 20260505014531 | 45 | 0 | 16.0 | 26.0 | 0.20 | 0.28 | 0.28 | 85 | 1011.8 |
| 20260505013506 | 45 | 0 | 12.0 | 20.0 | 0.19 | 0.25 | 0.25 | 84 | 1012.5 |
| 20260505011436 | 47 | 0 | 7.0 | 13.0 | 0.09 | 0.15 | 0.15 | 83 | 1012.6 |
| 20260505010423 | 47 | 0 | 10.0 | 22.0 | 0.08 | 0.14 | 0.14 | 81 | 1011.9 |
| 20260505005407 | 48 | 296 | 12.0 | 22.0 | 0.06 | 0.12 | 0.12 | 78 | 1011.8 |
| 20260505004357 | 50 | 0 | 9.0 | 22.0 | 0.01 | 0.07 | 0.07 | 72 | 1012.0 |
| 20260505003343 | 50 | 0 | 15.0 | 29.0 | 0.00 | 0.06 | 0.06 | 69 | 1011.3 |
| 20260505001327 | 52 | 0 | 0.0 | 0.0 | 0.00 | 0.06 | 0.06 | 63 | 1010.7 |
| 20260505000315 | 53 | 0 | 0.0 | 0.0 | 0.00 | 0.06 | 0.06 | 61 | 1010.6 |
| 20260504235301 | 54 | 0 | 0.0 | 0.0 | 0.00 | 0.06 | 0.06 | 60 | 1010.6 |
| 20260504233230 | 55 | 0 | 0.0 | 0.0 | 0.00 | 0.06 | 0.06 | 58 | 1010.5 |
| 20260504232221 | 54 | 0 | 0.0 | 0.0 | 0.00 | 0.06 | 0.06 | 62 | 1010.4 |
| 20260504231209 | 54 | 0 | 0.0 | 0.0 | 0.00 | 0.06 | 0.06 | 62 | 1010.5 |
| 20260504224130 | 54 | 0 | 0.0 | 0.0 | 0.00 | 0.10 | 0.06 | 63 | 1011.1 |
| 20260504223110 | 54 | 0 | 0.0 | 0.0 | 0.00 | 0.10 | 0.06 | 62 | 1011.1 |
| 20260504221040 | 56 | 0 | 0.0 | 0.0 | 0.00 | 0.10 | 0.06 | 61 | 1011.1 |
| 20260504215000 | 57 | 0 | 0.0 | 0.0 | 0.00 | 0.10 | 0.06 | 60 | 1010.9 |
| 20260504213949 | 56 | 196 | 0.0 | 0.0 | 0.00 | 0.10 | 0.06 | 63 | 1011.2 |
| 20260504212928 | 56 | 0 | 0.0 | 0.0 | 0.02 | 0.10 | 0.06 | 62 | 1011.4 |
| 20260504211911 | 55 | 0 | 0.0 | 0.0 | 0.03 | 0.10 | 0.06 | 70 | 1011.7 |
| 20260504210849 | 55 | 0 | 0.0 | 0.0 | 0.04 | 0.10 | 0.06 | 74 | 1011.7 |
| 20260504205831 | 54 | 0 | 0.0 | 0.0 | 0.04 | 0.10 | 0.06 | 73 | 1011.7 |
| 20260504204808 | 54 | 0 | 0.0 | 0.0 | 0.04 | 0.10 | 0.06 | 77 | 1011.9 |
| 20260504203745 | 53 | 0 | 0.0 | 2.0 | 0.04 | 0.10 | 0.06 | 78 | 1012.1 |
| 20260504202728 | 53 | 0 | 0.0 | 3.0 | 0.01 | 0.07 | 0.03 | 71 | 1012.1 |
| 20260504201707 | 53 | 0 | 0.0 | 0.0 | 0.01 | 0.07 | 0.03 | 72 | 1012.4 |
| 20260504200646 | 54 | 0 | 0.0 | 0.0 | 0.00 | 0.06 | 0.02 | 67 | 1012.0 |
| 20260504195635 | 54 | 0 | 0.0 | 0.0 | 0.00 | 0.06 | 0.02 | 63 | 1012.0 |
| 20260504194616 | 55 | 0 | 0.0 | 0.0 | 0.00 | 0.06 | 0.02 | 60 | 1012.0 |
| 20260504193556 | 55 | 0 | 0.0 | 0.0 | 0.00 | 0.06 | 0.02 | 61 | 1012.3 |
| 20260504192535 | 55 | 0 | 0.0 | 0.0 | 0.00 | 0.06 | 0.02 | 62 | 1012.3 |
| 20260504191517 | 55 | 0 | 0.0 | 0.0 | 0.00 | 0.06 | 0.02 | 60 | 1012.4 |
| 20260504190458 | 56 | 0 | 0.0 | 0.0 | 0.00 | 0.06 | 0.02 | 60 | 1012.3 |
| 20260504185435 | 56 | 0 | 0.0 | 0.0 | 0.00 | 0.06 | 0.02 | 61 | 1012.3 |
| 20260504184415 | 56 | 0 | 0.0 | 0.0 | 0.00 | 0.06 | 0.02 | 65 | 1012.4 |
| 20260504183352 | 55 | 0 | 0.0 | 0.0 | 0.00 | 0.06 | 0.02 | 69 | 1012.5 |
| 20260504182333 | 53 | 0 | 0.0 | 0.0 | 0.00 | 0.06 | 0.02 | 72 | 1012.5 |
| 20260504181316 | 53 | 0 | 0.0 | 0.0 | 0.00 | 0.06 | 0.02 | 67 | 1012.7 |
| 20260504175231 | 52 | 0 | 7.0 | 18.0 | 0.00 | 0.06 | 0.02 | 72 | 1012.7 |
| 20260504170119 | 49 | 0 | 9.0 | 16.0 | 0.02 | 0.06 | 0.02 | 77 | 1012.7 |
| 20260504150930 | 50 | 0 | 6.0 | 13.0 | 0.00 | 0.04 | 0.00 | 66 | 1012.3 |
| 20260504140731 | 49 | 0 | 11.0 | 18.0 | 0.00 | 0.04 | 0.00 | 64 | 1011.9 |
| 20260504130636 | 49 | 0 | 8.0 | 12.0 | 0.00 | 0.04 | 0.00 | 65 | 1011.8 |
| 20260504110244 | 49 | 0 | 10.0 | 16.0 | 0.00 | 0.04 | 0.00 | 65 | 1013.0 |